[[{"header":{"parameterUnit":"m.s-1","parameterCategory":1,"la1":30.2991,"la2":30.254,"lo1":-89.0895,"lo2":-89.0444,"dy":0.0017,"dx":0.0017,"nx":28,"ny":28,"refTime":"2024-08-24T09:00:00:Z","depth":0,"parameterNumber":2,"parameterNumberName":"U-component_of_WINDS"},"data":[0,0,0,0,0,0,0,0,0,0,0,0,0,0,0,0,0,0,0,0,0,0,0,0,0,0,0,0,0,0,0,0,0,0,0,0,0,0,0,0,0,0,0,0,0,0,0,0,0,0,0,0,0,0,0,0,0,0,-5.2295,-5.2295,0,-5.2285,-5.2285,-5.2285,-5.2177,-5.2174,-5.2171,-5.2169,-5.2157,-5.2159,-5.2161,0,0,0,0,0,0,0,0,0,0,0,0,0,-5.2222,-5.2224,-5.2295,-5.2295,-5.2295,-5.2285,-5.2285,-5.2285,-5.2177,-5.2174,-5.2171,-5.2168,-5.2156,-5.2159,-5.2162,0,0,0,0,0,0,0,0,0,0,0,0,0,-5.2237,-5.2224,-5.2295,-5.224,-5.2235,-5.2285,-5.2285,-5.2285,-5.2178,-5.2174,-5.217,-5.2166,-5.2155,-5.2159,-5.2162,-5.2263,0,0,-5.2172,-5.2173,0,0,0,0,0,0,0,0,-5.2236,-5.224,-5.2248,-5.2244,-5.2238,-5.2228,-5.2255,-5.2278,-5.2179,-5.22,-5.2169,-5.2164,-5.2184,-5.2185,-5.2192,-5.2263,-5.2262,-5.2172,-5.2174,-5.2176,-5.2177,0,0,0,0,0,0,0,-5.2235,-5.2239,-5.2291,-5.2249,-5.2243,-5.2216,-5.2214,-5.2258,-5.2215,-5.2198,-5.219,-5.219,-5.218,-5.2189,-5.219,-5.2262,-5.2172,-5.2175,-5.2177,-5.2178,-5.2418,-5.2422,0,0,0,0,0,0,-5.2242,-5.2239,-5.2291,-5.2291,-5.2227,-5.2221,-5.2218,-5.2236,-5.2214,-5.2207,-5.2194,-5.2185,-5.2185,-5.2187,-5.219,-5.2307,-5.2176,-5.2179,-5.2181,-5.2414,-5.2419,-5.2424,0,0,0,0,0,0,-5.2241,-5.2248,-5.2292,-5.2263,-5.2267,-5.2226,-5.2247,-5.2237,-5.2245,-5.2211,-5.2202,-5.221,-5.2182,-5.2185,-5.2246,-5.2305,-5.218,-5.2183,-5.2409,-5.2415,-5.2421,-5.2543,0,0,0,0,0,0,-5.2239,-5.2248,-5.2285,-5.2265,-5.2269,-5.2349,-5.225,-5.224,-5.2252,-5.224,-5.2224,-5.2217,-5.2179,-5.2242,-5.225,-5.2307,-5.2186,-5.2403,-5.2412,-5.2419,-5.2533,-5.2552,-5.2569,0,0,0,0,0,-5.2237,-5.2319,-5.2288,-5.2295,-5.2315,-5.2352,-5.2354,-5.2309,-5.2257,-5.2294,-5.2273,-5.2218,-5.2299,-5.2249,-5.2257,-5.2316,-5.2399,-5.2409,-5.2419,-5.2525,-5.2549,-5.2569,0,0,0,0,0,0,-5.2345,-5.2315,-5.228,-5.2358,-5.2359,-5.2334,-5.2379,-5.2335,-5.235,-5.2339,-5.2282,-5.2279,-5.2349,-5.2339,-5.2285,-5.2415,-5.2339,-5.2351,-5.2417,-5.244,-5.2457,-5.2457,-5.2189,0,0,0,0,0,-5.2379,-5.2412,-5.2384,-5.2456,-5.2458,-5.242,-5.2434,-5.24,-5.2397,-5.2397,-5.2379,-5.2379,-5.2405,-5.2422,-5.2443,-5.2533,-5.2527,-5.2578,-5.2596,-5.2611,-5.2621,-5.2668,-5.269,-5.2456,-5.2456,-5.2456,0,0,-5.2447,-5.2435,-5.2459,-5.2477,-5.2473,-5.2509,-5.242,-5.2461,-5.2487,-5.2403,-5.2459,-5.2448,-5.2444,-5.252,-5.2553,-5.2514,-5.2685,-5.2624,-5.2636,-5.2637,-5.268,-5.2702,-5.2722,-5.2463,-5.2462,-5.2461,0,0,-5.259,-5.2585,-5.2644,-5.2643,-5.264,-5.2614,-5.263,-5.2612,-5.2601,-5.2658,-5.2596,-5.2627,-5.2672,-5.2672,-5.2678,-5.2827,-5.2776,-5.2836,-5.2928,-5.2974,-5.2993,-5.3009,-5.3061,-5.308,-5.2846,-5.2847,-5.2847,0,-5.2674,-5.2726,-5.2679,-5.2725,-5.2735,-5.2664,-5.2724,-5.2726,-5.273,-5.2738,-5.2696,-5.2752,-5.2745,-5.282,-5.2857,-5.2864,-5.2879,-5.2835,-5.2994,-5.301,-5.3024,-5.3073,-5.3092,-5.2853,-5.2853,-5.2852,-5.2851,0,-5.283,-5.2867,-5.2916,-5.2923,-5.2939,-5.2992,-5.2954,-5.2976,-5.2943,-5.2922,-5.2982,-5.2971,-5.299,-5.3006,-5.2972,-5.3078,-5.3054,-5.3004,-5.2926,-5.3054,-5.3099,-5.3117,-5.2864,-5.2861,-5.2859,-5.2857,0,0,-5.3034,-5.302,-5.3038,-5.3041,-5.3035,-5.3062,-5.3114,-5.3133,-5.3153,-5.316,-5.3201,-5.3243,-5.3198,-5.3205,-5.3171,-5.3213,-5.3331,-5.3158,-5.3157,-5.3189,-5.3446,-5.3481,-5.3503,-5.33,-5.3303,-5.3306,-5.3445,0,-5.317,-5.3255,-5.3218,-5.3307,-5.3341,-5.3277,-5.3322,-5.3323,-5.3307,-5.3334,-5.3316,-5.3346,-5.3284,-5.3288,-5.3327,-5.3308,-5.3381,-5.3298,-5.3335,-5.3337,-5.3335,-5.3527,-5.3563,-5.3695,-5.3463,-5.3466,-5.3468,0,-5.3338,-5.3354,-5.3447,-5.3438,-5.345,-5.3491,-5.3507,-5.3534,-5.3536,-5.3521,-5.3532,-5.349,-5.354,-5.3467,-5.3535,-5.3479,-5.3493,-5.3487,-5.3491,-5.349,-5.3407,-5.3528,-5.3736,-5.3755,-5.3495,-5.3493,-5.3491,0,-5.3475,-5.3521,-5.3582,-5.3588,-5.3578,-5.3609,-5.3606,-5.3604,-5.3619,-5.3634,-5.3643,-5.3664,-5.3675,-5.3692,-5.3657,-5.3607,-5.373,-5.3654,-5.3718,-5.3719,-5.3743,-5.3741,-5.3953,-5.3758,-5.3757,-5.3757,-5.3757,0,-5.3628,-5.3687,-5.3644,-5.3682,-5.3747,-5.3706,-5.3771,-5.3762,-5.3761,-5.3796,-5.3743,-5.3777,-5.3731,-5.3761,-5.3734,-5.3794,-5.38,-5.3789,-5.3781,-5.3792,-5.3793,-5.3797,-5.3786,-5.3762,-5.3761,-5.376,-5.3759,0,-5.379,-5.3764,-5.3827,-5.3816,-5.3814,-5.3863,-5.3852,-5.3887,-5.387,-5.3915,-5.3923,-5.3895,-5.3928,-5.3896,-5.3927,-5.3909,-5.3989,-5.3969,-5.3989,-5.3982,-5.4047,-5.4041,-5.4267,-5.4294,-5.4084,-5.4086,-5.4088,0,-5.3888,-5.3932,-5.3927,-5.3947,-5.3949,-5.3982,-5.3998,-5.3961,-5.398,-5.3987,-5.4021,-5.405,-5.407,-5.4126,-5.4108,-5.4132,-5.411,-5.4188,-5.4113,-5.4123,-5.4109,-5.4105,-5.4109,-5.4202,-5.4204,-5.4206,-5.4208,0,-5.4063,-5.4049,-5.4075,-5.4098,-5.412,-5.4136,-5.4147,-5.4167,-5.4128,-5.4153,-5.4187,-5.4203,-5.4236,-5.4265,-5.4285,-5.4281,-5.4238,-5.4233,-5.4249,-5.4258,-5.4267,-5.4262,-5.4027,-5.4227,-5.4225,-5.4223,-5.4222,-5.4222,-5.4193,-5.4231,-5.4233,-5.4265,-5.4271,-5.4284,-5.4317,-5.4305,-5.4333,-5.4358,-5.4335,-5.4376,-5.4379,-5.4401,-5.4404,-5.4435,-5.4402,-5.4425,-5.4431,-5.4436,-5.4445,-5.4266,-5.4439,-5.4438,-5.4438,-5.4437,-5.4437,0,-5.4364,-5.4364,-5.4394,-5.4413,-5.4439,-5.4401,-5.4413,-5.4436,-5.4473,-5.4481,-5.4504,-5.4544,-5.4573,-5.456,-5.4585,-5.4613,-5.4594,-5.4621,-5.4617,-5.4617,-5.4474,-5.4457,-5.4636,-5.4636,-5.4636,-5.4636,-5.4636,-5.4636,-5.4455,-5.4516,-5.4504,-5.4568,-5.4568,-5.4609,-5.4619,-5.4631,-5.4637,-5.4685,-5.471,-5.4702,-5.4702,-5.4728,-5.4753,-5.4749,-5.4759,-5.4793,-5.4781,-5.4647,-5.4627,-5.4608,-5.4591,-5.4796,-5.4797,-5.4921,-5.4922,-5.4923]},{"header":{"parameterUnit":"m.s-1","parameterCategory":1,"la1":30.2991,"la2":30.254,"lo1":-89.0895,"lo2":-89.0444,"dy":0.0017,"dx":0.0017,"nx":28,"ny":28,"refTime":"2024-08-24T09:00:00:Z","depth":0,"parameterNumber":3,"parameterNumberName":"V-component_of_WINDS"},"data":[0,0,0,0,0,0,0,0,0,0,0,0,0,0,0,0,0,0,0,0,0,0,0,0,0,0,0,0,0,0,0,0,0,0,0,0,0,0,0,0,0,0,0,0,0,0,0,0,0,0,0,0,0,0,0,0,0,0,1.5111,1.511,0,1.5057,1.5057,1.5056,1.5066,1.5067,1.5068,1.5069,1.5008,1.5005,1.5003,0,0,0,0,0,0,0,0,0,0,0,0,0,1.5217,1.5215,1.5111,1.511,1.511,1.5058,1.5057,1.5056,1.5066,1.5067,1.5068,1.507,1.5009,1.5006,1.5003,0,0,0,0,0,0,0,0,0,0,0,0,0,1.5168,1.5214,1.5111,1.5109,1.5108,1.5058,1.5057,1.5056,1.5066,1.5067,1.5069,1.507,1.501,1.5006,1.5002,1.4949,0,0,1.4991,1.4989,0,0,0,0,0,0,0,0,1.5171,1.5164,1.511,1.5109,1.5108,1.507,1.5072,1.502,1.5065,1.5082,1.5069,1.5071,1.5027,1.5022,1.5008,1.4946,1.4944,1.499,1.4988,1.4986,1.4985,0,0,0,0,0,0,0,1.5174,1.5166,1.509,1.5109,1.5108,1.5108,1.5103,1.5062,1.5046,1.508,1.5081,1.5075,1.5027,1.5012,1.5007,1.4943,1.499,1.4987,1.4985,1.4983,1.4835,1.4834,0,0,0,0,0,0,1.5179,1.5169,1.5091,1.5088,1.5144,1.5105,1.5099,1.5081,1.5047,1.5043,1.5074,1.5075,1.5018,1.5011,1.5005,1.494,1.4986,1.4983,1.4981,1.4837,1.4835,1.4833,0,0,0,0,0,0,1.5181,1.5172,1.5093,1.5129,1.5119,1.5102,1.5081,1.5079,1.5064,1.5042,1.5039,1.5062,1.5019,1.501,1.4964,1.4938,1.4981,1.4978,1.4839,1.4836,1.4834,1.4811,0,0,0,0,0,0,1.5184,1.5173,1.5153,1.5128,1.5117,1.5054,1.5079,1.5077,1.5058,1.506,1.503,1.5026,1.5019,1.4969,1.496,1.4934,1.4975,1.4841,1.4838,1.4835,1.4814,1.4809,1.4804,0,0,0,0,0,1.5188,1.5148,1.5152,1.5143,1.5093,1.5053,1.5046,1.5041,1.5056,1.5036,1.5022,1.5027,1.4943,1.4964,1.4954,1.4926,1.4842,1.4838,1.4835,1.4817,1.481,1.4804,0,0,0,0,0,0,1.5168,1.5144,1.5149,1.51,1.5079,1.5055,1.5029,1.5033,1.5005,1.5008,1.5001,1.4994,1.4946,1.4932,1.4956,1.4874,1.4895,1.4889,1.4885,1.4878,1.4872,1.4876,1.4971,0,0,0,0,0,1.5158,1.513,1.511,1.5068,1.5058,1.5045,1.5028,1.5026,1.5002,1.4993,1.4975,1.4951,1.4919,1.4898,1.4867,1.4813,1.4806,1.4789,1.4784,1.478,1.4774,1.4744,1.4736,1.4821,1.4821,1.4821,0,0,1.5137,1.512,1.5102,1.5064,1.5047,1.5016,1.5037,1.5004,1.498,1.4987,1.4942,1.4929,1.4901,1.485,1.4827,1.4837,1.4749,1.4775,1.4772,1.4768,1.4739,1.4731,1.4724,1.4818,1.4819,1.4819,0,0,1.5082,1.5067,1.5031,1.5015,1.499,1.4983,1.4974,1.495,1.4942,1.4898,1.4902,1.4873,1.4819,1.4799,1.4782,1.4722,1.4725,1.4712,1.4683,1.4654,1.4647,1.4641,1.4619,1.4611,1.4707,1.4707,1.4707,0,1.5057,1.5013,1.5011,1.4978,1.496,1.4968,1.4931,1.4914,1.488,1.4867,1.4879,1.4812,1.4793,1.4738,1.4724,1.471,1.4699,1.4714,1.4649,1.4643,1.4637,1.4615,1.4607,1.4705,1.4705,1.4705,1.4706,0,1.4984,1.4953,1.4927,1.4896,1.4876,1.484,1.4832,1.4812,1.4812,1.4803,1.4757,1.4736,1.4702,1.4689,1.4688,1.4634,1.464,1.4651,1.4671,1.4627,1.4607,1.4599,1.4703,1.4703,1.4704,1.4704,0,0,1.4912,1.4884,1.4874,1.486,1.4834,1.4809,1.4774,1.4743,1.4725,1.4702,1.4671,1.4626,1.4636,1.4616,1.4613,1.4588,1.4541,1.4601,1.4601,1.459,1.4479,1.447,1.4461,1.4544,1.4543,1.4541,1.4481,0,1.4854,1.4794,1.4793,1.4737,1.4707,1.4716,1.4685,1.4665,1.4656,1.4628,1.4618,1.4586,1.4602,1.459,1.4566,1.4552,1.4518,1.4556,1.4513,1.4512,1.4519,1.445,1.4441,1.4384,1.4473,1.4472,1.4471,0,1.4778,1.4755,1.4696,1.4676,1.4664,1.4636,1.4608,1.4582,1.456,1.4555,1.4534,1.4536,1.4498,1.4522,1.447,1.4496,1.4478,1.4469,1.4467,1.4461,1.4487,1.4441,1.4366,1.4357,1.4458,1.4459,1.446,0,1.473,1.4684,1.4644,1.4632,1.4607,1.4588,1.4576,1.4556,1.4537,1.4512,1.45,1.447,1.4453,1.4429,1.4421,1.444,1.4369,1.4392,1.4362,1.4362,1.4345,1.4346,1.4265,1.4336,1.4337,1.4337,1.4337,0,1.4664,1.4628,1.4622,1.4597,1.4556,1.4555,1.4514,1.4504,1.4486,1.4458,1.4463,1.4436,1.4429,1.44,1.4394,1.4351,1.4343,1.4337,1.4335,1.4336,1.4336,1.4322,1.4325,1.4334,1.4335,1.4335,1.4336,0,1.4603,1.4598,1.4554,1.4536,1.453,1.4501,1.4484,1.4459,1.4452,1.4416,1.4408,1.4395,1.4362,1.4353,1.4312,1.4308,1.4257,1.426,1.4265,1.4265,1.4235,1.4237,1.4141,1.4128,1.421,1.4209,1.4208,0,1.4561,1.4533,1.4513,1.4496,1.4484,1.4456,1.4438,1.4435,1.4416,1.4389,1.4367,1.4335,1.4309,1.4256,1.4241,1.4211,1.4212,1.418,1.4207,1.4208,1.421,1.4211,1.4208,1.4174,1.4173,1.4173,1.4172,0,1.4486,1.4485,1.446,1.4434,1.4413,1.4392,1.4372,1.4357,1.4352,1.433,1.4297,1.4277,1.4237,1.4205,1.4174,1.416,1.4164,1.4165,1.4156,1.4154,1.4158,1.4155,1.425,1.4166,1.4167,1.4167,1.4167,1.4168,1.4431,1.4408,1.439,1.4362,1.4348,1.4329,1.4305,1.4296,1.4269,1.4238,1.4238,1.4202,1.4181,1.414,1.4125,1.4096,1.4105,1.4092,1.4089,1.4085,1.4082,1.4165,1.409,1.409,1.4091,1.4091,1.4091,0,1.4356,1.4346,1.432,1.4293,1.4271,1.428,1.4259,1.4239,1.4208,1.4189,1.4164,1.4126,1.4096,1.408,1.4049,1.4029,1.403,1.402,1.4021,1.4017,1.4076,1.4087,1.402,1.402,1.402,1.402,1.402,1.402,1.4314,1.4274,1.4272,1.4225,1.4214,1.4181,1.4168,1.415,1.4135,1.4093,1.4069,1.406,1.4042,1.401,1.3981,1.3978,1.3965,1.3954,1.3951,1.4006,1.4013,1.402,1.403,1.3952,1.3952,1.3895,1.3894,1.3894]}]]